To NAV CANADA Home Page Login to a new session Search on AWWS site Feedback and Comments Disclaimer Vers la page française équivalente Tips FAQ What's new on the site To the Forecasts and Observations / NOTAM section To "File a Flight Plan" website Publications and other links Update of the User's profile FIC Telephone Numbers My Weather Data Folder Route Weather Data Regional Weather Data Local Weather Data To the Forecasts and Observations / NOTAM section
Request Generated 02/23/2017 at 20:46:59 UTC . Weather information available at that time is displayed.

METAR/TAF

SALLUIT/QC    

METAR CYZG 232000Z 23003KT 15SM FEW012 M22/M25 A2993 RMK SC2 SLP171=
METAR CYZG 231900Z VRB02KT 15SM FEW012 FEW120 M22/M25 A2993 RMK
SC1AC1 SLP171=
METAR CYZG 231800Z 27003KT 220V280 15SM FEW120 M24/M27 A2994 RMK AC2
SLP174=

CYZG - No TAF is issued for this station

Your time UTC time
Weather data provided by Environment Canada and NAV CANADA